Location: Newark
(40.3500°N, 15.2333°E)
Time: 04:57:05
(UTC+00:00)

Vanguard 2 - Visible Passes

Search period start: 26 January 2020 00:00
Search period end: 05 February 2020 00:00
Orbit: 553 x 2938 km, 32.9° (Epoch: 25 January)

Date Brightness Start Highest point End Pass type
(mag) Time Alt. Az. Time Alt. Az. Time Alt. Az.
30 Jan 12.3 04:33:07 10° SSE 04:39:19 13° SE 04:45:13 10° ESE visible
31 Jan 12.1 04:46:31 10° S 04:56:57 19° SE 05:06:32 10° ESE visible
01 Feb 12.0 05:01:46 10° S 05:14:36 25° SE 05:26:06 10° E visible
02 Feb 11.8 05:17:49 10° SSW 05:32:15 32° SSE 05:44:59 10° E visible
03 Feb 12.0 03:31:01 10° SSE 03:39:33 16° SE 03:48:03 10° ESE visible
03 Feb 11.6 05:34:25 10° SSW 05:49:58 39° SSE 06:03:28 10° E visible
04 Feb 11.8 03:45:34 10° S 03:57:00 22° SE 04:08:25 10° E visible
